TimeEST,TemperatureF,Dew PointF,Humidity,Sea Level PressureIn,VisibilityMPH,Wind Direction,Wind SpeedMPH,Gust SpeedMPH,PrecipitationIn,Events,Conditions,WindDirDegrees,DateUTC
12:54 AM,32.0,28.9,88,30.26,5.0,Calm,Calm,-,N/A,,Clear,0,2013-01-04 05:54:00
1:54 AM,30.0,28.0,92,30.27,3.0,Calm,Calm,-,N/A,,Clear,0,2013-01-04 06:54:00
2:17 AM,30.2,28.4,93,30.26,1.8,Calm,Calm,-,N/A,,Clear,0,2013-01-04 07:17:00
2:21 AM,30.2,28.4,93,30.26,0.8,Calm,Calm,-,N/A,,Mist,0,2013-01-04 07:21:00
2:41 AM,30.2,28.4,93,30.27,1.2,Calm,Calm,-,N/A,,Partly Cloudy,0,2013-01-04 07:41:00
2:45 AM,30.2,28.4,93,30.27,3.0,Calm,Calm,-,N/A,,Partly Cloudy,0,2013-01-04 07:45:00
2:54 AM,30.9,28.0,89,30.27,5.0,Calm,Calm,-,N/A,,Clear,0,2013-01-04 07:54:00
3:54 AM,30.0,28.0,92,30.28,5.0,SW,3.5,-,N/A,,Clear,230,2013-01-04 08:54:00
4:52 AM,30.2,26.6,86,30.28,2.0,Calm,Calm,-,N/A,,Clear,0,2013-01-04 09:52:00
4:54 AM,30.0,28.0,92,30.28,2.0,Calm,Calm,-,N/A,,Clear,0,2013-01-04 09:54:00
5:07 AM,28.4,26.6,93,30.27,1.0,Calm,Calm,-,N/A,,Clear,0,2013-01-04 10:07:00
5:15 AM,30.2,28.4,93,30.28,3.0,Calm,Calm,-,N/A,,Clear,0,2013-01-04 10:15:00
5:54 AM,32.0,28.9,88,30.29,7.0,West,3.5,-,N/A,,Clear,270,2013-01-04 10:54:00
6:54 AM,28.9,27.0,92,30.29,5.0,Calm,Calm,-,N/A,,Clear,0,2013-01-04 11:54:00
7:54 AM,28.0,27.0,96,30.31,5.0,Calm,Calm,-,N/A,,Clear,0,2013-01-04 12:54:00
8:54 AM,37.9,32.0,79,30.32,9.0,Calm,Calm,-,N/A,,Clear,0,2013-01-04 13:54:00
9:54 AM,42.1,30.0,62,30.33,10.0,NNW,5.8,-,N/A,,Clear,330,2013-01-04 14:54:00
10:54 AM,45.0,28.9,53,30.32,10.0,NW,9.2,-,N/A,,Clear,320,2013-01-04 15:54:00
11:54 AM,48.0,28.9,48,30.28,10.0,WNW,6.9,-,N/A,,Clear,290,2013-01-04 16:54:00
12:54 PM,50.0,27.0,41,30.24,10.0,Variable,6.9,-,N/A,,Clear,0,2013-01-04 17:54:00
1:54 PM,51.1,27.0,39,30.22,10.0,West,11.5,16.1,N/A,,Clear,270,2013-01-04 18:54:00
2:54 PM,52.0,28.9,41,30.20,10.0,West,8.1,-,N/A,,Clear,260,2013-01-04 19:54:00
3:54 PM,51.1,27.0,39,30.21,10.0,West,9.2,-,N/A,,Clear,280,2013-01-04 20:54:00
4:54 PM,48.0,27.0,44,30.20,10.0,Variable,6.9,-,N/A,,Clear,0,2013-01-04 21:54:00
5:54 PM,46.0,27.0,47,30.22,10.0,West,3.5,-,N/A,,Clear,260,2013-01-04 22:54:00
6:54 PM,41.0,28.9,62,30.24,10.0,SSW,3.5,-,N/A,,Clear,210,2013-01-04 23:54:00
7:54 PM,41.0,32.0,70,30.25,10.0,SW,4.6,-,N/A,,Mostly Cloudy,220,2013-01-05 00:54:00
8:54 PM,44.1,30.9,60,30.27,10.0,WSW,4.6,-,N/A,,Overcast,250,2013-01-05 01:54:00
9:54 PM,45.0,30.9,58,30.28,10.0,WSW,5.8,-,N/A,,Overcast,250,2013-01-05 02:54:00
10:54 PM,42.1,30.0,62,30.28,10.0,West,4.6,-,N/A,,Mostly Cloudy,280,2013-01-05 03:54:00
11:54 PM,41.0,30.0,65,30.28,10.0,West,3.5,-,N/A,,Clear,270,2013-01-05 04:54:00